Weather History for Fairhope, AL

Change the Weather History Date:

Monday, March 25, 2013

  Actual Average (KBFM) Record (KBFM)
Temperature  
Mean Temperature 50 °F -  
Max Temperature 60 °F 68 °F 84 °F (2012)
Min Temperature 41 °F 50 °F 33 °F (2008)
Degree Days  
Heating Degree Days 14    
Moisture  
Dew Point 28 °F    
Average Humidity 44    
Maximum Humidity 70    
Minimum Humidity 20    
Precipitation  
Precipitation 0.00 in - - ()
Sea Level Pressure  
Sea Level Pressure 30.09 in    
Wind  
Wind Speed 12 mph (NW)    
Max Wind Speed 17 mph    
Max Gust Speed 26 mph    
Visibility 7 miles    
Events      
Averages and records for this station are not official NWS values.
T = Trace of Precipitation, MM = Missing Value Source: NWS Daily Summary

Daily Weather History Graph

Daily Weather History Graph

Search for Another Location

Airport:

Trip Planner

Search our weather history database for the weather conditions in past years. The results will help you decide how hot, cold, wet, or windy it might be!

Date:

Astronomy

Mar. 25, 2013 Rise Set
Actual Time 6:48 AM CDT 7:06 PM CDT
Civil Twilight 6:24 AM CDT 7:30 PM CDT
Nautical Twilight 5:56 AM CDT 7:58 PM CDT
Astronomical Twilight 5:28 AM CDT 8:26 PM CDT
Moon 5:41 PM CDT (3/25) 5:26 AM CDT (3/25)
Length of Visible Light 13h 05m
Length of Day
12h 17m
Waxing Gibbous, 96% of the Moon is Illuminated
Mar 25
Waxing Gibbous
Mar 27
Full
Apr 2
Last Quarter
Apr 10
New
Apr 18
First Quarter

Hourly Weather History & Observations

Time (CDT) Temp. Windchill Dew Point Humidity Pressure Visibility Wind Dir Wind Speed Gust Speed Precip Events Conditions
12:15 AM 50.0 °F - 33.8 °F 54% 29.95 in 7.0 mi NNW 10.4 mph 20.7 mph N/A   Mostly Cloudy
12:35 AM 50.0 °F - 33.8 °F 54% 29.96 in 7.0 mi NW 10.4 mph - N/A   Scattered Clouds
12:55 AM 50.0 °F - 33.8 °F 54% 29.96 in 7.0 mi NW 11.5 mph 17.3 mph N/A   Scattered Clouds
1:15 AM 50.0 °F - 33.8 °F 54% 29.96 in 7.0 mi NW 11.5 mph 18.4 mph N/A   Mostly Cloudy
1:35 AM 48.2 °F - 32.0 °F 54% 29.97 in 7.0 mi NW 12.7 mph 21.9 mph N/A   Scattered Clouds
1:55 AM 48.2 °F - 32.0 °F 54% 29.98 in 7.0 mi NW 13.8 mph 23.0 mph N/A   Scattered Clouds
2:15 AM 46.4 °F 40.4 °F 32.0 °F 57% 29.98 in 7.0 mi NW 13.8 mph 20.7 mph N/A   Mostly Cloudy
2:35 AM 46.4 °F 40.7 °F 32.0 °F 57% 29.98 in 7.0 mi NW 12.7 mph 21.9 mph N/A   Overcast
2:55 AM 46.4 °F 41.5 °F 32.0 °F 57% 29.99 in 10.0 mi NW 10.4 mph 19.6 mph N/A   Mostly Cloudy
3:15 AM 46.4 °F 40.4 °F 32.0 °F 57% 30.00 in 10.0 mi NW 13.8 mph 21.9 mph N/A   Scattered Clouds
3:35 AM 44.6 °F 38.4 °F 32.0 °F 61% 30.00 in 10.0 mi NW 12.7 mph 18.4 mph N/A   Scattered Clouds
3:55 AM 44.6 °F 38.4 °F 32.0 °F 61% 30.00 in 10.0 mi WNW 12.7 mph 18.4 mph N/A   Scattered Clouds
4:15 AM 44.6 °F 38.4 °F 32.0 °F 61% 30.01 in 7.0 mi NW 12.7 mph 17.3 mph N/A   Scattered Clouds
4:35 AM 44.6 °F 40.2 °F 32.0 °F 61% 30.01 in 7.0 mi NNW 8.1 mph 18.4 mph N/A   Scattered Clouds
4:55 AM 42.8 °F 37.0 °F 32.0 °F 66% 30.02 in 5.0 mi NNW 10.4 mph 17.3 mph N/A   Haze
5:35 AM 42.8 °F 38.6 °F 32.0 °F 66% 30.02 in 7.0 mi NW 6.9 mph 17.3 mph N/A   Clear
6:15 AM 41.0 °F 35.2 °F 30.2 °F 65% 30.04 in 5.0 mi NW 9.2 mph 18.4 mph N/A   Haze
6:35 AM 41.0 °F 34.7 °F 32.0 °F 70% 30.05 in 7.0 mi NW 10.4 mph - N/A   Clear
6:55 AM 41.0 °F 33.5 °F 28.4 °F 61% 30.07 in 7.0 mi NNW 13.8 mph 23.0 mph N/A   Clear
7:15 AM 41.0 °F 33.5 °F 30.2 °F 65% 30.08 in 7.0 mi NNW 13.8 mph 20.7 mph N/A   Clear
7:35 AM 42.8 °F 36.6 °F 30.2 °F 61% 30.09 in 7.0 mi NNW 11.5 mph 19.6 mph N/A   Clear
7:55 AM 42.8 °F 36.2 °F 30.2 °F 61% 30.10 in 7.0 mi NW 12.7 mph 18.4 mph N/A   Clear
8:15 AM 42.8 °F 37.0 °F 32.0 °F 66% 30.11 in 7.0 mi NW 10.4 mph 17.3 mph N/A   Clear
8:35 AM 42.8 °F 35.1 °F 32.0 °F 66% 30.12 in 7.0 mi NW 16.1 mph 21.9 mph N/A   Clear
8:55 AM 44.6 °F 38.4 °F 32.0 °F 61% 30.13 in 7.0 mi NW 12.7 mph 19.6 mph N/A   Clear
9:15 AM 44.6 °F 38.8 °F 32.0 °F 61% 30.13 in 7.0 mi NW 11.5 mph 19.6 mph N/A   Clear
9:35 AM 44.6 °F 38.8 °F 32.0 °F 61% 30.13 in 7.0 mi NNW 11.5 mph 20.7 mph N/A   Clear
9:55 AM 46.4 °F 40.7 °F 32.0 °F 57% 30.13 in 4.0 mi NW 12.7 mph 19.6 mph N/A   Haze
10:15 AM 46.4 °F 40.7 °F 30.2 °F 53% 30.13 in 7.0 mi NNW 12.7 mph 20.7 mph N/A   Clear
10:35 AM 48.2 °F - 32.0 °F 54% 30.13 in 7.0 mi WNW 12.7 mph 17.3 mph N/A   Clear
10:55 AM 50.0 °F - 30.2 °F 47% 30.13 in 7.0 mi NW 12.7 mph 17.3 mph N/A   Clear
11:15 AM 50.0 °F - 30.2 °F 47% 30.13 in 10.0 mi NW 12.7 mph 18.4 mph N/A   Clear
11:35 AM 51.8 °F - 30.2 °F 44% 30.13 in 7.0 mi NNW 13.8 mph 19.6 mph N/A   Clear
11:55 AM 51.8 °F - 30.2 °F 44% 30.14 in 10.0 mi WNW 10.4 mph 17.3 mph N/A   Clear
12:15 PM 53.6 °F - 28.4 °F 38% 30.13 in 7.0 mi NW 13.8 mph 19.6 mph N/A   Clear
12:35 PM 55.4 °F - 26.6 °F 33% 30.11 in 7.0 mi NNW 17.3 mph 23.0 mph N/A   Clear
12:55 PM 55.4 °F - 26.6 °F 33% 30.11 in 7.0 mi NW 16.1 mph 24.2 mph N/A   Clear
1:15 PM 57.2 °F - 26.6 °F 31% 30.10 in 7.0 mi WNW 15.0 mph 21.9 mph N/A   Clear
1:35 PM 59.0 °F - 24.8 °F 27% 30.09 in 7.0 mi NW 13.8 mph 23.0 mph N/A   Clear
1:55 PM 59.0 °F - 23.0 °F 25% 30.08 in 7.0 mi NW 13.8 mph 25.3 mph N/A   Clear
2:15 PM 59.0 °F - 23.0 °F 25% 30.08 in 7.0 mi NW 16.1 mph 26.5 mph N/A   Clear
2:35 PM 59.0 °F - 23.0 °F 25% 30.07 in 7.0 mi NW 13.8 mph 23.0 mph N/A   Clear
2:55 PM 60.8 °F - 23.0 °F 23% 30.06 in 7.0 mi NW 15.0 mph 23.0 mph N/A   Clear
3:15 PM 60.8 °F - 23.0 °F 23% 30.06 in 7.0 mi NW 13.8 mph 23.0 mph N/A   Clear
3:35 PM 60.8 °F - 23.0 °F 23% 30.05 in 7.0 mi NW 15.0 mph 19.6 mph N/A   Clear
3:55 PM 60.8 °F - 21.2 °F 22% 30.05 in 7.0 mi WNW 13.8 mph 26.5 mph N/A   Clear
4:15 PM 60.8 °F - 19.4 °F 20% 30.05 in 10.0 mi WNW 11.5 mph 23.0 mph N/A   Clear
4:35 PM 60.8 °F - 21.2 °F 22% 30.05 in 7.0 mi NW 12.7 mph 21.9 mph N/A   Clear
4:55 PM 60.8 °F - 23.0 °F 23% 30.05 in 7.0 mi NNW 15.0 mph 18.4 mph N/A   Clear
5:15 PM 59.0 °F - 21.2 °F 23% 30.05 in 7.0 mi NW 10.4 mph 17.3 mph N/A   Clear
5:35 PM 59.0 °F - 21.2 °F 23% 30.06 in 7.0 mi NW 11.5 mph 19.6 mph N/A   Clear
5:55 PM 59.0 °F - 21.2 °F 23% 30.07 in 7.0 mi NW 11.5 mph 21.9 mph N/A   Clear
6:15 PM 57.2 °F - 23.0 °F 27% 30.07 in 7.0 mi NW 9.2 mph 20.7 mph N/A   Clear
6:35 PM 55.4 °F - 21.2 °F 26% 30.08 in 7.0 mi NNW 9.2 mph - N/A   Clear
6:55 PM 53.6 °F - 21.2 °F 28% 30.09 in 7.0 mi NW 10.4 mph - N/A   Clear
7:15 PM 53.6 °F - 21.2 °F 28% 30.10 in 7.0 mi NW 13.8 mph 18.4 mph N/A   Clear
7:35 PM 53.6 °F - 21.2 °F 28% 30.12 in 7.0 mi NW 10.4 mph 17.3 mph N/A   Clear
7:55 PM 53.6 °F - 21.2 °F 28% 30.13 in 7.0 mi NW 8.1 mph 18.4 mph N/A   Clear
8:15 PM 51.8 °F - 23.0 °F 33% 30.15 in 7.0 mi NNW 12.7 mph 20.7 mph N/A   Clear
8:35 PM 51.8 °F - 23.0 °F 33% 30.16 in 7.0 mi NNW 10.4 mph 16.1 mph N/A   Clear
8:55 PM 51.8 °F - 24.8 °F 35% 30.17 in 10.0 mi NNW 11.5 mph 18.4 mph N/A   Clear
9:15 PM 50.0 °F - 24.8 °F 37% 30.18 in 7.0 mi NNW 10.4 mph 17.3 mph N/A   Clear
9:35 PM 50.0 °F - 26.6 °F 40% 30.19 in 7.0 mi NNW 6.9 mph - N/A   Clear
9:55 PM 50.0 °F - 24.8 °F 37% 30.20 in 7.0 mi NNW 5.8 mph - N/A   Clear
10:15 PM 48.2 °F - 24.8 °F 40% 30.21 in 7.0 mi NNW 6.9 mph - N/A   Clear
10:35 PM 48.2 °F - 26.6 °F 43% 30.21 in 7.0 mi North 6.9 mph - N/A   Clear
10:55 PM 46.4 °F 43.5 °F 24.8 °F 43% 30.22 in 5.0 mi NNW 5.8 mph - N/A   Haze
11:15 PM 46.4 °F 44.3 °F 26.6 °F 46% 30.22 in 7.0 mi North 4.6 mph - N/A   Clear
11:35 PM 46.4 °F 45.2 °F 26.6 °F 46% 30.23 in 10.0 mi North 3.5 mph - N/A   Clear
11:55 PM 44.6 °F 43.1 °F 26.6 °F 49% 30.23 in 7.0 mi North 3.5 mph - N/A   Clear